User: anonymous   Login
Location: Mount Tamalpais State Park
(37.9108°N, 122.6128°W)
Time: 11:25:17
(UTC-07:00)
Language:

Cosmos 1814 Rocket - Orbit

View from above orbital plane
View from above orbital plane
View from above satellite
View from above satellite

Ground track
Ground track

The orbit data is extracted from the following two-line orbital elements,

1 17304U 87006B   18140.59288583  .00000026  00000-0  17395-4 0  9995
2 17304  74.0583 190.4972 0030824 303.6619  56.1595 14.37632365641788
Epoch (UTC): 20 May 2018 14:13:45
Eccentricity: 0.0030824
inclination: 74.0583°
perigee height: 744 km
apogee height: 788 km
right ascension of ascending node: 190.4972°
argument of perigee: 303.6619°
revolutions per day: 14.37632365
mean anomaly at epoch: 56.1595°
orbit number at epoch: 64178

The dashed part of the orbit path shows where the satellite is in the earth's shadow,  

DLR